Location: Nashville
(36.1660°N, 86.7840°W)
Time: 17:03:22
(UTC-06:00)

BlueWalker 3 - Pass Details

Date: 06 December 2022
Orbit: 499 x 517 km, 53.2° (Epoch: 31 January)

Event Time Altitude Azimuth Distance (km) Brightness Sun altitude
Rises 16:47:17 0° 324° (NW) 2,627 5.7 -3.5°
Enters shadow 16:54:16 - 41° (NE) 2,261 4.7 -4.8°
Exits shadow 17:27:57 -64° 119° (ESE) 11,989 8.8 -11.1°
Reaches altitude 10° 18:28:44 10° 343° (NNW) 1,727 4.7 -22.9°
